Location: Dompnac
(44.5644°N, 4.1026°E)
Time: 00:51:25
(UTC+00:00)

Cosmos 1627 Rocket - Visible Passes

Search period start: 24 January 2021 00:00
Search period end: 03 February 2021 00:00
Orbit: 951 x 1003 km, 82.9° (Epoch: 23 January)

Date Brightness Start Highest point End Pass type
(mag) Time Alt. Az. Time Alt. Az. Time Alt. Az.
24 Jan 5.8 04:50:17 10° N 04:56:18 41° ENE 05:02:17 10° SE visible
24 Jan 5.2 06:35:57 10° NNW 06:41:35 34° W 06:47:13 10° SSW visible
24 Jan 4.4 18:21:49 10° S 18:27:59 79° E 18:34:17 10° N visible
24 Jan 6.9 20:10:06 10° WSW 20:14:12 18° WNW 20:18:21 10° NNW visible
25 Jan 7.3 03:33:15 10° NE 03:35:45 12° ENE 03:38:15 10° E visible
25 Jan 4.8 05:16:01 10° N 05:22:24 71° E 05:28:47 10° SSE visible
25 Jan 5.6 17:04:30 10° SE 17:09:06 22° E 17:13:45 10° NE visible
25 Jan 5.0 18:47:52 10° SSW 18:53:57 60° WNW 19:00:12 10° N visible
26 Jan 6.8 03:57:31 10° NNE 04:02:19 22° ENE 04:07:06 10° ESE visible
26 Jan 4.5 05:41:59 10° NNW 05:48:20 68° W 05:54:39 10° S visible
26 Jan 4.9 17:29:00 10° SSE 17:34:40 39° E 17:40:26 10° NNE visible
26 Jan 6.0 19:14:32 10° SW 19:20:07 34° WNW 19:25:49 10° N visible
27 Jan 5.9 04:22:48 10° N 04:28:40 37° ENE 04:34:30 10° SE visible
27 Jan 5.0 06:08:15 10° NNW 06:14:04 38° W 06:19:53 10° SSW visible
27 Jan 4.4 17:54:15 10° S 18:00:25 70° E 18:06:41 10° NNE visible
27 Jan 6.8 19:42:01 10° WSW 19:46:29 20° WNW 19:51:02 10° NNW visible
28 Jan 7.4 03:06:31 10° NE 03:08:01 11° ENE 03:09:30 10° ENE visible
28 Jan 5.0 04:48:27 10° N 04:54:49 64° E 05:01:08 10° SSE visible
28 Jan 5.6 06:34:57 10° NW 06:39:39 22° W 06:44:20 10° SW visible
28 Jan 4.8 18:20:10 10° SSW 18:26:20 68° W 18:32:39 10° N visible
28 Jan 7.4 20:11:11 10° WNW 20:13:05 11° WNW 20:14:59 10° NW visible
29 Jan 6.9 03:30:10 10° NNE 03:34:38 19° ENE 03:39:04 10° ESE visible
29 Jan 4.4 05:14:22 10° N 05:20:46 76° W 05:27:08 10° S visible
29 Jan 5.9 18:46:42 10° SW 18:52:27 39° WNW 18:58:20 10° N visible
30 Jan 6.1 03:55:19 10° N 04:01:01 33° ENE 04:06:41 10° SE visible
30 Jan 4.8 05:40:34 10° NNW 05:46:33 43° W 05:52:30 10° SSW visible
30 Jan 4.5 17:26:44 10° S 17:32:50 62° E 17:39:05 10° NNE visible
30 Jan 6.7 19:13:59 10° WSW 19:18:47 23° WNW 19:23:40 10° NNW visible
31 Jan 5.1 04:20:54 10° N 04:27:12 57° ENE 04:33:28 10° SSE visible
31 Jan 5.5 06:07:10 10° NNW 06:12:10 25° W 06:17:09 10° SW visible
31 Jan 4.7 17:52:30 10° SSW 17:58:44 76° W 18:05:06 10° N visible
31 Jan 7.3 19:42:33 10° W 19:45:20 13° WNW 19:48:08 10° NNW visible
01 Feb 7.0 03:02:51 10° NNE 03:06:56 17° ENE 03:10:59 10° ESE visible
01 Feb 4.4 04:46:46 10° N 04:53:13 85° W 04:59:35 10° S visible
01 Feb 5.7 18:18:54 10° SW 18:24:49 44° WNW 18:30:51 10° N visible
02 Feb 6.2 03:27:51 10° N 03:33:22 29° ENE 03:38:50 10° SE visible
02 Feb 4.7 05:12:55 10° NNW 05:19:01 49° W 05:25:06 10° SSW visible
02 Feb 6.6 18:46:00 10° WSW 18:51:05 26° WNW 18:56:16 10° NNW visible
